SCP
0 0 0 0 0 0 0 0 0 0 0 0 0 0 0 0 0 0 0 0 0 0 0 0 0 0 0 0 0 0 0 0 0 0 0 0 0 0 0 1 1 1 1 1
0 0 0 0 0 0 0 0 0 0 0 0 0 0 0 0 0 0 0 0 0 0 0 0 0 0 0 0 0 0 0 0 0 0 0 0 0 0 0 0 1 1 1 1
0 0 0 0 0 0 0 0 0 0 0 0 0 0 0 0 0 0 0 0 0 0 0 0 0 0 0 0 0 0 0 0 0 0 0 0 0 0 0 0 1 1 1 1
0 0 0 0 0 0 0 0 0 0 0 0 0 0 0 0 0 0 0 0 0 0 0 0 0 0 0 0 0 0 0 0 0 0 0 0 0 0 0 0 0 0 1 1
0 0 0 0 0 0 0 0 0 0 0 0 0 0 0 0 0 0 0 0 0 0 0 0 0 0 0 0 0 0 0 0 0 0 0 0 0 0 0 0 0 0 0 0
0 0 0 0 0 0 0 0 0 0 0 0 0 0 0 0 0 0 0 0 0 0 0 0 0 0 0 0 0 0 0 0 0 0 0 0 0 0 0 0 0 0 0 0
0 0 0 0 0 0 0 0 0 0 0 0 0 0 0 0 0 0 0 0 0 0 0 0 0 0 0 0 0 0 0 0 0 0 0 0 0 0 0 0 0 0 0 0
0 0 0 0 0 0 0 0 0 0 0 0 0 0 0 0 0 0 0 0 0 0 0 0 0 0 0 0 0 0 0 0 0 0 0 0 0 0 0 0 0 0 0 0
0 0 0 0 0 0 0 0 0 0 0 0 0 0 0 0 0 0 0 0 0 0 0 0 0 0 0 0 0 0 0 0 0 0 0 0 0 0 0 0 0 0 0 0
0 0 0 0 0 0 0 0 0 0 0 0 0 0 0 0 0 0 0 0 0 0 0 0 0 0 0 0 0 0 0 0 0 0 0 0 0 0 0 0 0 0 0 0
0 0 0 0 0 0 0 0 0 0 0 0 0 0 0 0 0 0 0 0 0 0 0 0 0 0 0 0 0 0 0 0 0 0 0 0 0 0 0 0 0 0 0 0
0 0 0 0 0 0 0 0 0 0 0 0 0 0 0 0 0 0 0 0 0 0 0 0 0 0 0 0 0 0 0 0 0 0 0 0 0 0 0 0 0 0 0 0
0 0 0 0 0 0 0 0 0 0 0 0 0 0 0 0 0 0 0 0 0 0 0 0 0 0 0 0 0 0 0 0 0 0 0 0 0 0 0 0 0 0 0 0
0 0 0 0 0 0 0 0 0 0 0 0 0 0 0 0 0 0 0 0 0 0 0 0 0 0 0 0 0 0 0 0 0 0 0 0 0 0 0 0 0 0 0 0
0 0 0 0 0 0 0 0 0 0 0 0 0 0 0 0 0 0 0 0 0 0 0 0 0 0 0 0 0 0 0 0 0 0 0 0 0 0 0 0 0 0 0 0
0 0 0 0 0 0 0 0 0 0 0 0 0 0 0 0 0 0 0 0 0 0 0 0 0 0 0 0 0 0 0 0 0 0 0 0 0 0 0 0 0 0 0 0
0 0 0 0 0 0 0 0 0 0 0 0 0 0 0 0 0 0 0 0 0 0 0 0 0 0 0 0 0 0 0 0 0 0 0 0 0 0 0 0 0 0 0 0
0 0 0 0 0 0 0 0 0 0 0 0 0 0 0 0 0 0 0 0 0 0 0 0 0 0 0 0 0 0 0 0 0 0 0 0 0 0 0 0 0 0 0 0
0 0 0 0 0 0 0 0 0 0 0 0 0 0 0 0 0 0 0 0 0 0 0 0 0 0 0 0 0 0 0 0 0 0 0 0 0 0 0 0 0 0 0 0
0 0 0 0 0 0 0 0 0 0 0 0 0 0 0 0 0 0 0 0 0 0 0 0 0 0 0 0 0 0 0 0 0 0 0 0 0 0 0 0 0 0 0 0
0 0 0 0 0 0 0 0 0 0 0 0 0 0 0 0 0 0 0 0 0 0 0 0 0 0 0 0 0 0 0 0 0 0 0 0 0 0 0 0 0 0 0 0
0 0 0 0 0 0 0 0 0 0 0 0 0 0 0 0 0 0 0 0 0 0 0 0 0 0 0 0 0 0 0 0 0 0 0 0 0 0 0 0 0 0 0 0
0 0 0 0 0 0 0 0 0 0 0 0 0 0 0 0 0 0 0 0 0 0 0 0 0 0 0 0 0 0 0 0 0 0 0 0 0 0 0 0 0 0 0 0
0 0 0 0 0 0 0 0 0 0 0 0 0 0 0 0 0 0 0 0 0 0 0 0 0 0 0 0 0 0 0 0 0 0 0 0 0 0 0 0 0 0 0 0
0 0 0 0 0 0 0 0 1 1 0 0 0 0 0 0 0 0 0 0 0 0 0 0 0 0 0 0 0 0 0 0 0 0 0 0 0 0 0 0 0 0 0 0
0 0 0 1 1 1 1 1 1 1 1 0 0 0 0 0 0 0 0 0 0 0 0 0 0 0 0 0 0 0 0 0 0 0 0 0 0 0 0 0 0 0 0 0
0 0 0 1 1 1 1 1 1 1 1 1 0 0 0 0 0 0 0 0 0 0 0 0 0 0 0 0 0 0 0 0 0 0 0 0 0 0 0 0 0 0 0 0
Wind_Speed
3 2 3 4 2 2 4 6 9 12 14 12 10 9 11 13 14 16 15 15 16 16 15 16 16 16 16 15 15 15 16 16 17 17 17 17 16 16 16 16 16 16 17 17
3 3 4 6 5 5 3 5 9 12 12 7 6 9 12 14 15 16 15 16 17 17 17 16 16 15 15 15 15 15 16 16 16 17 17 17 17 17 16 16 16 16 16 16
7 1 8 8 7 6 4 7 9 11 12 12 11 12 14 15 14 14 16 17 17 17 16 15 15 14 14 14 15 15 15 16 16 16 17 17 18 17 17 16 16 15 15 15
7 5 8 5 5 2 5 9 7 9 11 11 11 12 13 11 10 14 16 16 16 16 15 14 14 14 13 14 14 15 15 15 15 16 17 17 17 17 17 14 14 13 14 14
7 10 10 5 6 3 6 9 4 8 10 10 11 13 8 5 9 13 15 15 14 15 15 14 14 13 14 15 14 15 15 15 16 17 17 17 17 17 15 14 13 13 13 13
8 11 11 2 8 2 4 4 3 6 9 11 12 12 9 12 14 14 14 14 14 14 14 13 13 13 14 15 15 15 15 16 16 16 16 17 17 16 13 12 12 12 12 12
10 11 7 8 8 5 6 8 7 7 8 10 10 11 13 15 14 14 15 15 14 13 13 12 12 13 14 15 15 15 15 16 16 16 16 16 15 13 12 11 11 11 11 10
6 7 2 11 7 5 6 4 5 7 8 9 10 12 13 13 13 14 15 15 14 13 13 12 12 12 14 15 15 15 15 16 16 16 14 13 14 13 11 9 9 9 9 8
5 5 3 8 7 4 4 6 6 7 8 8 11 12 13 13 13 14 15 14 13 13 14 13 12 11 14 15 14 14 15 16 16 16 14 13 12 12 10 8 7 6 6 6
8 9 6 8 10 9 7 7 6 6 7 9 11 12 13 12 13 14 14 14 13 13 14 14 13 12 12 14 13 13 15 15 14 14 13 12 10 8 8 7 7 6 5 4
11 12 9 10 11 10 8 8 7 6 7 8 10 12 12 12 13 13 14 13 13 13 13 15 14 13 13 12 12 13 14 14 14 13 12 11 10 7 8 7 5 7 6 5
10 6 7 5 5 6 8 8 7 7 7 8 9 10 12 12 12 13 14 14 13 14 14 15 15 14 13 12 12 13 12 12 11 10 10 10 9 8 4 4 4 4 6 7
11 8 8 6 5 6 7 7 6 6 7 8 8 9 11 11 12 13 14 14 14 14 14 15 14 14 13 13 13 13 12 12 10 10 10 9 9 8 7 2 3 1 2 3
10 8 10 10 8 8 7 6 6 6 6 6 7 8 10 11 12 14 14 14 13 14 14 14 14 14 14 14 14 14 13 12 11 9 9 8 8 7 6 6 3 1 2 3
10 12 12 7 7 8 8 7 7 7 6 6 7 8 9 11 13 13 12 12 12 13 13 13 14 15 15 15 14 14 12 9 9 9 8 8 7 6 4 4 3 2 1 3
8 9 12 11 11 10 10 9 9 7 6 5 6 7 9 10 12 12 11 10 12 13 13 13 14 15 16 15 14 11 10 14 12 9 8 7 6 5 4 3 2 2 2 1
10 10 12 14 14 13 11 10 8 7 5 5 6 6 8 10 11 11 11 11 11 11 11 11 14 15 15 13 12 10 9 10 13 10 6 6 6 5 4 3 2 2 1 2
9 10 9 11 12 12 11 10 8 6 6 5 5 6 7 9 10 10 11 11 11 11 10 12 14 16 14 13 11 9 8 9 9 8 6 5 6 5 4 3 3 2 0 2
7 8 9 9 9 9 8 8 7 6 5 5 5 5 6 7 8 8 9 10 11 11 12 14 16 14 13 14 14 9 9 9 9 7 6 5 5 3 3 3 3 3 2 1
8 7 8 10 10 9 8 7 7 7 6 6 6 6 6 7 7 7 7 7 6 8 12 14 15 12 13 13 16 9 9 9 9 8 7 6 5 4 3 3 3 3 3 2
11 8 8 10 10 10 9 8 8 8 8 8 7 6 6 6 6 6 6 6 7 9 12 12 9 10 12 14 13 8 8 9 9 8 7 6 5 4 4 4 4 4 3 3
13 11 9 9 10 9 8 8 9 9 9 9 8 7 6 6 5 5 4 4 6 7 9 8 8 12 16 16 8 8 8 8 8 7 7 6 5 4 4 3 3 3 3 3
12 11 10 9 10 9 8 8 9 9 10 10 9 8 6 5 4 4 5 4 6 9 9 7 11 16 19 10 8 8 8 8 8 8 7 6 5 4 3 2 2 2 2 2
12 10 8 8 8 9 9 9 9 9 10 10 9 8 6 5 4 3 3 1 2 7 8 6 9 14 13 7 8 8 8 8 8 8 8 7 6 4 3 2 1 2 2 2
14 13 11 10 9 8 10 11 11 11 11 9 9 9 7 4 3 2 3 4 3 5 7 5 6 10 9 7 8 8 8 8 8 8 7 7 6 5 4 3 1 1 2 2
15 14 12 12 11 10 10 10 9 9 9 9 8 8 7 5 4 3 2 3 4 4 5 6 7 7 7 8 8 8 8 8 8 7 8 7 7 6 5 4 3 2 0 1
16 15 12 12 11 10 10 9 9 9 10 10 10 9 7 6 4 2 1 2 3 3 4 5 6 7 7 8 8 8 8 8 8 8 7 7 6 6 5 6 4 3 2 0
Wind_Direction
20 353 296 301 282 284 329 343 327 329 321 330 344 332 322 317 317 318 321 322 321 320 320 318 317 317 315 315 316 316 313 309 309 309 308 305 303 301 298 294 289 284 278 268
243 218 267 267 253 242 277 315 318 315 323 360 332 312 315 319 322 323 323 322 322 321 320 320 319 317 317 314 314 313 309 308 310 309 307 306 304 300 296 293 291 287 280 273
298 281 271 257 212 221 275 321 317 315 326 332 317 321 321 318 318 322 323 322 320 320 319 319 318 318 315 314 312 309 306 306 307 308 308 305 304 303 299 296 293 288 283 275
294 282 275 60 111 210 289 306 308 306 314 321 316 317 303 298 313 321 320 319 318 317 318 317 319 319 316 311 308 306 306 308 311 311 308 306 304 301 297 294 290 286 283 278
287 287 293 146 174 223 297 308 314 315 318 316 319 307 307 27 329 316 317 317 314 314 315 316 317 320 316 309 308 307 309 313 313 311 309 306 302 299 298 294 287 283 281 279
272 290 296 69 129 126 275 275 36 317 313 317 318 312 337 349 331 323 321 317 315 313 312 314 322 321 313 309 309 308 312 313 312 310 307 305 303 301 297 291 286 283 278 274
272 279 285 113 137 191 277 352 357 324 315 311 317 314 319 322 322 322 319 316 314 311 312 319 321 316 308 307 305 309 311 310 310 309 308 306 306 303 300 294 287 282 279 273
272 276 307 133 165 244 325 339 314 313 309 310 310 311 314 318 320 320 319 318 317 313 314 318 319 315 309 307 308 310 307 307 310 311 312 311 310 307 304 300 291 284 278 272
280 296 53 185 216 251 287 287 299 304 310 312 310 315 319 320 321 321 320 319 316 314 314 317 321 318 310 309 310 307 304 305 308 311 311 309 310 312 309 303 294 289 282 275
267 270 252 226 234 244 248 263 283 293 299 306 309 316 319 320 321 320 320 319 318 317 315 317 320 318 310 308 309 305 302 304 306 308 309 311 311 311 312 312 308 301 295 282
260 274 270 236 230 236 236 241 257 269 283 299 308 312 317 316 318 320 319 319 318 316 314 314 317 315 314 312 311 305 302 301 303 305 309 308 309 312 313 316 317 306 308 308
270 283 248 240 198 210 219 229 245 263 279 291 302 308 312 313 316 317 318 319 318 318 317 316 315 314 317 319 315 308 303 302 300 303 306 308 312 314 284 265 294 286 281 287
265 279 257 244 202 199 211 223 235 249 269 288 302 306 309 311 314 317 318 321 325 322 318 314 313 315 321 326 320 313 306 301 297 298 303 310 314 318 327 310 194 163 355 302
249 249 248 234 225 207 209 213 230 246 262 282 298 305 308 312 316 320 324 329 327 321 316 315 317 321 329 328 321 316 311 302 295 292 298 305 311 318 330 336 355 73 93 46
239 229 240 248 213 197 199 209 227 245 259 278 292 301 312 317 320 322 327 330 325 320 320 321 322 327 331 326 321 318 314 307 302 298 298 303 311 320 333 345 3 24 53 97
265 237 236 227 210 205 202 213 232 253 270 286 296 306 316 319 319 321 328 331 326 322 321 324 327 329 327 323 321 317 314 310 308 301 299 306 319 327 336 351 5 37 56 72
268 253 232 222 214 210 211 218 232 253 271 278 290 306 315 319 320 327 333 335 326 315 319 330 329 327 324 323 323 317 314 312 306 297 304 318 327 336 341 353 3 25 61 57
277 269 249 226 217 210 210 216 223 234 248 260 278 296 312 321 325 330 332 331 324 323 336 336 332 326 323 327 327 319 314 311 311 315 319 324 332 339 346 351 5 4 330 164
297 264 241 219 210 205 205 208 214 222 226 233 251 282 306 314 323 329 329 324 325 333 340 336 330 322 329 334 334 320 319 320 320 316 314 311 306 346 3 3 1 356 347 327
314 274 239 216 204 204 205 203 204 210 215 218 233 259 288 311 324 324 323 317 334 342 332 329 325 327 333 336 334 323 325 327 326 325 321 321 336 3 17 14 17 8 356 352
339 303 259 234 217 210 209 206 206 209 210 212 224 248 279 299 306 312 316 323 347 350 331 317 320 337 338 332 322 325 331 332 331 330 327 326 332 349 17 24 21 11 4 359
351 336 306 273 248 230 214 210 211 214 211 211 218 233 258 276 289 299 306 321 331 352 329 323 340 343 334 326 327 334 337 337 335 333 332 331 333 339 4 23 29 22 16 18
345 343 329 305 283 265 244 230 223 222 218 214 216 225 245 281 300 300 312 351 338 344 322 334 342 334 330 329 336 339 341 342 340 335 333 329 326 328 344 12 38 45 41 30
327 329 323 302 286 272 257 243 232 229 223 216 217 217 230 247 249 250 317 350 333 325 317 344 333 329 326 337 344 343 344 345 342 337 335 335 335 336 335 333 7 65 76 55
312 308 296 282 268 258 258 251 238 227 220 214 213 205 215 234 269 311 324 328 354 320 321 341 335 329 335 349 350 347 345 347 343 336 337 339 339 336 330 327 347 39 86 69
299 294 291 283 274 266 261 251 234 216 210 210 207 201 202 198 213 239 268 310 333 324 326 340 345 343 348 350 352 350 348 346 345 345 343 337 336 338 335 333 324 315 6 56
288 286 280 277 276 272 268 258 241 224 212 209 202 192 188 185 191 210 267 321 344 355 358 355 351 352 352 353 354 354 353 352 349 346 342 337 335 333 328 320 311 296 279 145